📊 Raw Sensor Data
Showing records 37576 to 37600 of 84,915 total
| ID | Distance (ft) | Battery V | Battery A | Int Temp (°F) | Int Humid (%) | Ext Temp (°F) | Solar V | RSSI | SNR | Time Stamp |
|---|---|---|---|---|---|---|---|---|---|---|
| 47352 | 15.0 | 3.88 | -5 | 57 | 45 | 58 | 0.00 | -71 | 7 | 07/25/2025 11:45 PM |
| 47351 | 15.0 | 3.88 | -5 | 57 | 45 | 58 | 0.00 | -69 | 8 | 07/25/2025 11:30 PM |
| 47350 | 15.0 | 3.88 | -5 | 57 | 45 | 58 | 0.00 | -71 | 7 | 07/25/2025 11:15 PM |
| 47349 | 14.9 | 3.88 | -5 | 57 | 46 | 58 | 0.00 | -71 | 8 | 07/25/2025 11:00 PM |
| 47348 | 15.0 | 3.93 | -5 | 58 | 46 | 58 | 0.10 | -71 | 8 | 07/25/2025 10:45 PM |
| 47347 | 15.0 | 3.88 | -5 | 58 | 46 | 59 | 0.10 | -70 | 8 | 07/25/2025 10:30 PM |
| 47346 | 15.1 | 3.84 | -5 | 58 | 47 | 59 | 0.10 | -70 | 8 | 07/25/2025 10:15 PM |
| 47345 | 15.0 | 3.83 | -5 | 59 | 47 | 59 | 0.00 | -71 | 7 | 07/25/2025 10:00 PM |
| 47344 | 15.0 | 3.87 | -5 | 59 | 48 | 60 | 0.00 | -72 | 8 | 07/25/2025 09:45 PM |
| 47343 | 15.0 | 3.88 | -5 | 60 | 48 | 60 | 0.00 | -71 | 8 | 07/25/2025 09:30 PM |
| 47342 | 15.0 | 3.87 | -5 | 61 | 49 | 61 | 0.00 | -69 | 8 | 07/25/2025 09:15 PM |
| 47341 | 14.9 | 3.88 | -5 | 61 | 50 | 61 | 0.00 | -70 | 8 | 07/25/2025 09:00 PM |
| 47340 | 15.0 | 3.86 | -5 | 62 | 52 | 62 | 0.00 | -71 | 8 | 07/25/2025 08:45 PM |
| 47339 | 15.0 | 3.86 | -5 | 64 | 53 | 62 | 2.20 | -70 | 8 | 07/25/2025 08:30 PM |
| 47338 | 15.0 | 3.85 | -29 | 66 | 54 | 63 | 4.20 | -72 | 8 | 07/25/2025 08:15 PM |
| 47337 | 15.1 | 3.94 | 0 | 70 | 53 | 66 | 4.50 | -70 | 7 | 07/25/2025 08:00 PM |
| 47336 | 15.1 | 3.95 | 0 | 74 | 52 | 68 | 4.50 | -70 | 8 | 07/25/2025 07:45 PM |
| 47335 | 15.1 | 3.96 | 7 | 78 | 51 | 72 | 4.50 | -70 | 8 | 07/25/2025 07:30 PM |
| 47334 | 15.1 | 3.97 | -7 | 79 | 51 | 72 | 4.50 | -71 | 7 | 07/25/2025 07:15 PM |
| 47333 | 15.2 | 3.94 | 0 | 81 | 50 | 74 | 4.50 | -71 | 7 | 07/25/2025 07:00 PM |
| 47332 | 15.1 | 3.99 | 43 | 82 | 51 | 75 | 4.50 | -71 | 8 | 07/25/2025 06:45 PM |
| 47331 | 15.1 | 3.92 | 6 | 84 | 50 | 76 | 5.10 | -70 | 7 | 07/25/2025 06:30 PM |
| 47330 | 15.2 | 3.91 | 6 | 86 | 49 | 78 | 5.10 | -70 | 8 | 07/25/2025 06:00 PM |
| 47329 | 15.2 | 4.10 | 6 | 87 | 49 | 79 | 5.10 | -70 | 8 | 07/25/2025 05:45 PM |
| 47328 | 15.2 | 4.02 | 6 | 89 | 48 | 79 | 5.10 | -72 | 7 | 07/25/2025 05:30 PM |